{"data":{"norad_id":63191,"epoch":"2026-05-24T11:41:12.315840Z","epoch_age_seconds":126144,"freshness":"FRESH","line1":"1 63191U 25048J   26144.48694810  .00163557  00000+0  12528-2 0  9992","line2":"2 63191  42.9984 222.8712 0000920 130.6263 229.4684 15.70847644 70440","mean_motion":15.70847644,"eccentricity":9.2e-5,"inclination_deg":42.9984,"raan_deg":222.8712,"arg_perigee_deg":130.6263,"mean_anomaly_deg":229.4684,"bstar":0.0012528,"rev_number":7044,"period_min":91.670252395273,"perigee_km":355.8536295349,"apogee_km":357.09279781422,"semimajor_km":6734.6102136746,"source":"CELESTRAK","updated_at":"2026-05-25T13:38:19.920459Z"}}